FW4059 Weather Reports


time (UTC)temp
C
wind
direction
speed
KPH
gust
KPH
rain 1hr
cm
rain 24hr
cm
rain mn
cm
humidity
%
barometer
mb
20260509201514 17 250 0.0 4.8 0.00 0.00 0.00 70 1005.0
20260509200038 18 243 1.6 6.4 0.00 0.00 0.00 68 1004.9
20260509194555 18 221 0.0 6.4 0.00 0.00 0.00 69 1005.2
20260509193016 18 224 0.0 3.2 0.00 0.00 0.00 69 1005.2
20260509191543 18 207 0.0 4.8 0.00 0.00 0.00 68 1005.6
20260509190059 18 217 0.0 6.4 0.00 0.00 0.00 70 1005.8
20260509190001 18 217 0.0 6.4 0.00 0.00 0.00 70 1005.9
20260509184529 18 238 0.0 3.2 0.00 0.00 0.00 68 1005.9
20260509183035 18 230 0.0 6.4 0.00 0.00 0.00 69 1006.0
20260509181608 18 260 0.0 4.8 0.00 0.00 0.00 68 1006.1
20260509180019 18 224 0.0 8.0 0.00 0.00 0.00 69 1006.1
20260509174531 18 249 0.0 8.0 0.00 0.00 0.00 68 1006.4
20260509173107 18 218 0.0 6.4 0.00 0.00 0.00 68 1006.7
20260509171519 18 232 1.6 6.4 0.00 0.00 0.00 66 1007.1
20260509170049 18 17 0.0 6.4 0.00 0.00 0.00 67 1006.8
20260509164557 18 56 0.0 4.8 0.00 0.00 0.00 71 1006.9
20260509164504 18 220 0.0 4.8 0.00 0.00 0.00 70 1007.1
20260509163024 17 229 0.0 6.4 0.00 0.00 0.00 72 1007.3
20260509161552 17 224 0.0 6.4 0.00 0.00 0.00 71 1007.7
20260509160058 16 236 1.6 6.4 0.00 0.00 0.00 75 1007.6
20260509154525 17 228 0.0 4.8 0.00 0.00 0.00 74 1007.5
20260509153047 15 279 0.0 4.8 0.00 0.00 0.00 76 1007.8
20260509151504 15 255 0.0 4.8 0.00 0.00 0.00 76 1008.0
20260509150023 15 255 0.0 3.2 0.00 0.00 0.00 78 1008.2
20260509144546 15 228 0.0 3.2 0.00 0.00 0.00 80 1008.1
20260509143011 15 232 0.0 1.6 0.00 0.00 0.00 82 1008.2
20260509141540 14 242 0.0 1.6 0.00 0.00 0.00 82 1008.2
20260509140054 14 236 0.0 4.8 0.00 0.00 0.00 83 1008.4
20260509134528 14 214 0.0 1.6 0.00 0.00 0.00 84 1008.6
20260509133033 13 199 0.0 3.2 0.00 0.00 0.00 85 1008.7
20260509131549 13 213 0.0 1.6 0.00 0.00 0.00 85 1008.8
20260509130018 12 318 0.0 6.4 0.00 0.00 0.00 86 1008.9
20260509124522 12 280 0.0 3.2 0.00 0.00 0.00 87 1008.8
20260509123045 11 244 0.0 1.6 0.00 0.00 0.00 87 1009.0
20260509121558 11 153 0.0 4.8 0.00 0.00 0.00 88 1009.1
20260509120024 10 130 0.0 0.0 0.00 0.00 0.00 91 1009.1
20260509114535 8 130 0.0 0.0 0.00 0.00 0.00 92 1009.0
20260509113050 8 130 0.0 0.0 0.00 0.00 0.00 93 1008.9
20260509111512 7 130 0.0 0.0 0.00 0.00 0.00 93 1009.0
20260509110029 6 145 0.0 0.0 0.00 0.00 0.00 92 1009.0
20260509104601 6 145 0.0 0.0 0.00 0.00 0.00 91 1009.4
20260509103007 5 145 0.0 0.0 0.00 0.00 0.00 91 1009.3
20260509101536 5 145 0.0 0.0 0.00 0.00 0.00 90 1009.1
20260509100054 6 145 0.0 0.0 0.00 0.00 0.00 89 1009.0
20260509094513 6 145 0.0 0.0 0.00 0.00 0.00 88 1009.0
20260509093033 6 145 0.0 0.0 0.00 0.00 0.00 86 1009.1
20260509091556 6 145 0.0 0.0 0.00 0.00 0.00 86 1009.0
20260509091503 6 145 0.0 0.0 0.00 0.00 0.00 86 1009.0
20260509090019 5 145 0.0 0.0 0.00 0.00 0.00 86 1009.0
20260509084546 5 145 0.0 0.0 0.00 0.00 0.00 87 1009.1
20260509083006 5 145 0.0 0.0 0.00 0.00 0.00 86 1009.3
20260509081547 5 145 0.0 0.0 0.00 0.00 0.00 86 1009.4
20260509080050 5 145 0.0 0.0 0.00 0.00 0.00 86 1009.3
20260509074516 4 145 0.0 0.0 0.00 0.00 0.00 86 1009.4
20260509073043 4 145 0.0 0.0 0.00 0.00 0.00 86 1009.6
20260509071600 4 145 0.0 0.0 0.00 0.00 0.00 84 1009.7
20260509070017 4 145 0.0 0.0 0.00 0.00 0.00 83 1009.8
20260509064536 4 145 0.0 0.0 0.00 0.00 0.00 82 1009.9
20260509063112 5 214 0.0 0.0 0.00 0.00 0.00 81 1010.1
20260509061518 5 214 0.0 0.0 0.00 0.00 0.00 80 1010.4
20260509060049 5 214 0.0 0.0 0.00 0.00 0.00 80 1010.6
20260509054556 5 214 0.0 0.0 0.00 0.00 0.00 79 1010.7
20260509053021 5 214 0.0 0.0 0.00 0.00 0.00 79 1010.9
20260509051536 5 214 0.0 0.0 0.00 0.00 0.00 78 1010.9
20260509050058 5 214 0.0 0.0 0.00 0.00 0.00 80 1011.2
20260509044511 4 214 0.0 0.0 0.00 0.00 0.00 79 1011.3
20260509043026 4 214 0.0 0.0 0.00 0.00 0.00 77 1011.2
20260509041540 4 214 0.0 0.0 0.00 0.00 0.00 75 1011.2
20260509040104 5 214 0.0 0.0 0.00 0.00 0.00 76 1011.4
20260509034544 5 214 0.0 0.0 0.00 0.00 0.00 78 1011.5
20260509033006 5 214 0.0 0.0 0.00 0.00 0.00 81 1011.7
20260509031536 5 214 0.0 0.0 0.00 0.00 0.00 82 1011.7
20260509030057 5 214 0.0 0.0 0.00 0.00 0.00 81 1012.0
20260509024520 5 214 0.0 0.0 0.00 0.00 0.00 79 1011.9
20260509023044 5 214 0.0 0.0 0.00 0.00 0.00 78 1012.1
20260509021516 5 214 0.0 0.0 0.00 0.00 0.00 79 1011.8
20260509020047 6 214 0.0 0.0 0.00 0.00 0.00 79 1011.8
20260509014517 6 214 0.0 0.0 0.00 0.00 0.00 69 1011.9
20260509013030 7 214 0.0 0.0 0.00 0.00 0.00 69 1011.9
20260509011554 7 214 0.0 0.0 0.00 0.00 0.00 70 1011.9
20260509010016 7 214 0.0 0.0 0.00 0.00 0.00 67 1011.7
20260509004536 8 214 0.0 0.0 0.00 0.00 0.00 64 1011.7
20260509003059 10 214 0.0 0.0 0.00 0.00 0.00 64 1011.6
20260509001525 11 214 0.0 0.0 0.00 0.00 0.00 60 1011.2
20260509000055 12 214 0.0 0.0 0.00 0.00 0.00 60 1011.2
20260508234513 13 214 0.0 1.6 0.00 0.00 0.00 57 1011.3
20260508233036 15 97 0.0 3.2 0.00 0.00 0.00 48 1011.2
20260508231557 15 230 0.0 1.6 0.00 0.00 0.00 50 1011.1
20260508230021 15 222 0.0 4.8 0.00 0.00 0.00 49 1011.2
20260508224535 15 214 0.0 3.2 0.00 0.00 0.00 54 1011.2
20260508223056 15 261 0.0 1.6 0.00 0.00 0.00 52 1011.2
20260508221517 14 218 0.0 1.6 0.00 0.00 0.00 52 1011.3
20260508220043 15 233 0.0 0.0 0.00 0.00 0.00 52 1011.4
20260508214559 15 48 0.0 3.2 0.00 0.00 0.00 52 1011.5
20260508214514 15 119 0.0 3.2 0.00 0.00 0.00 54 1011.5
20260508213032 14 290 0.0 4.8 0.00 0.00 0.00 54 1011.6
20260508211557 14 307 1.6 4.8 0.00 0.00 0.00 54 1011.4
20260508210011 14 256 0.0 1.6 0.00 0.00 0.00 55 1011.6
20260508204529 13 281 0.0 1.6 0.00 0.00 0.00 58 1011.6
20260508203059 12 261 0.0 3.2 0.00 0.00 0.00 61 1011.7